< < Back
Terminal Aerodrome Forecast


Current Version              Previous Versions:   1  2  3  4  5  6  7  8  9  

Terminal Aerodrome Forecast

004
FTUS44 KMRX 280703 AAA
TAFTYS
TAF AMD
KTYS 280703Z 2807/2906 VRB02KT 1/4SM FG BKN001
     FM281200 VRB02KT 4SM BR SCT002
     FM281300 23006KT P6SM SCT050 BKN250
     FM290100 VRB02KT P6SM SCT070 BKN200=

Latest METAR

895
SAUS80 KWBC 290000 CCA
MTRTYS
METAR KTYS 282353Z 03003KT 10SM FEW049 BKN150 28/17 A3009 RMK AO2 SLP179
T02780167 10294 20267 55001


USA.gov is the U.S. government's official web portal to all federal, state and local government web resources and services.